START_TIME,STEP,MOV.,P1,t_acc.,E44,t_acc.,A3,t_acc.,P10,t_acc.
1979-03-06 15:00:20.840 ,0,1,88.,1.2,0.,1.2,0.,1.2,1.,1.2
1979-03-06 15:00:22.040 ,0,1,66.,1.2,0.,1.2,0.,1.2,1.,1.2
1979-03-06 15:00:23.240 ,0,1,64.,1.2,0.,1.2,1.,1.2,2.,1.2
1979-03-06 15:00:24.440 ,0,1,82.,1.2,0.,1.2,0.,1.2,4.,1.2
1979-03-06 15:00:25.640 ,0,1,66.,1.2,0.,1.2,0.,1.2,2.,1.2
1979-03-06 15:00:26.840 ,0,1,70.,1.2,0.,1.2,2.,1.2,4.,1.2
1979-03-06 15:00:28.040 ,0,1,72.,1.2,0.,1.2,1.,1.2,5.,1.2
1979-03-06 15:00:29.240 ,0,1,53.,1.2,0.,1.2,1.,1.2,4.,1.2
1979-03-06 15:00:30.440 ,0,1,84.,1.2,0.,1.2,2.,1.2,3.,1.2
1979-03-06 15:00:31.640 ,0,1,59.,1.2,0.,1.2,2.,1.2,3.,1.2
1979-03-06 15:00:32.840 ,0,1,58.,1.2,0.,1.2,0.,1.2,4.,1.2
1979-03-06 15:00:34.040 ,0,1,68.,1.2,0.,1.2,1.,1.2,1.,1.2
1979-03-06 15:00:35.240 ,0,1,72.,1.2,0.,1.2,0.,1.2,1.,1.2
1979-03-06 15:00:36.440 ,0,1,66.,1.2,0.,1.2,1.,1.2,3.,1.2
1979-03-06 15:00:37.640 ,0,1,70.,1.2,0.,1.2,1.,1.2,5.,1.2
1979-03-06 15:00:38.840 ,0,1,62.,1.2,0.,1.2,1.,1.2,3.,1.2
1979-03-06 15:00:40.040 ,0,1,90.,1.2,0.,1.2,0.,1.2,2.,1.2
1979-03-06 15:00:41.240 ,0,1,66.,1.2,0.,1.2,1.,1.2,1.,1.2
1979-03-06 15:00:42.440 ,0,1,63.,1.2,0.,1.2,1.,1.2,3.,1.2
1979-03-06 15:00:43.640 ,0,1,72.,1.2,0.,1.2,0.,1.2,3.,1.2
1979-03-06 15:00:44.840 ,4,1,56.,1.2,0.,1.2,0.,1.2,3.,1.2
1979-03-06 15:00:46.040 ,4,1,57.,1.2,0.,1.2,1.,1.2,3.,1.2
1979-03-06 15:00:47.240 ,4,1,61.,1.2,0.,1.2,1.,1.2,4.,1.2
1979-03-06 15:00:48.440 ,4,1,64.,1.2,0.,1.2,1.,1.2,3.,1.2
1979-03-06 15:00:49.640 ,4,1,60.,1.2,0.,1.2,0.,1.2,3.,1.2
1979-03-06 15:00:50.840 ,4,1,46.,1.2,0.,1.2,0.,1.2,5.,1.2
1979-03-06 15:00:52.040 ,4,1,68.,1.2,0.,1.2,0.,1.2,2.,1.2
1979-03-06 15:00:53.240 ,4,1,52.,1.2,0.,1.2,1.,1.2,0.,1.2
1979-03-06 15:00:54.440 ,4,1,57.,1.2,0.,1.2,0.,1.2,3.,1.2
1979-03-06 15:00:55.640 ,4,1,59.,1.2,0.,1.2,0.,1.2,2.,1.2
1979-03-06 15:00:56.840 ,4,1,64.,1.2,0.,1.2,1.,1.2,2.,1.2
1979-03-06 15:00:58.040 ,4,1,64.,1.2,0.,1.2,1.,1.2,3.,1.2
1979-03-06 15:00:59.240 ,4,1,59.,1.2,0.,1.2,1.,1.2,2.,1.2
1979-03-06 15:01:00.440 ,4,1,64.,1.2,0.,1.2,1.,1.2,1.,1.2
1979-03-06 15:01:01.640 ,4,1,92.,1.2,0.,1.2,0.,1.2,0.,1.2
1979-03-06 15:01:02.840 ,4,1,76.,1.2,0.,1.2,1.,1.2,4.,1.2
1979-03-06 15:01:04.040 ,4,1,88.,1.2,0.,1.2,0.,1.2,5.,1.2
1979-03-06 15:01:05.240 ,4,1,70.,1.2,0.,1.2,1.,1.2,3.,1.2
1979-03-06 15:01:06.440 ,4,1,70.,1.2,0.,1.2,1.,1.2,3.,1.2
1979-03-06 15:01:07.640 ,4,1,63.,1.2,0.,1.2,0.,1.2,4.,1.2
1979-03-06 15:01:08.840 ,7,1,74.,1.2,0.,1.2,1.,1.2,2.,1.2
1979-03-06 15:01:10.040 ,7,1,63.,1.2,0.,1.2,0.,1.2,5.,1.2
1979-03-06 15:01:11.240 ,7,1,62.,1.2,0.,1.2,1.,1.2,3.,1.2
1979-03-06 15:01:12.440 ,7,1,64.,1.2,0.,1.2,1.,1.2,4.,1.2
1979-03-06 15:01:13.640 ,7,1,64.,1.2,0.,1.2,1.,1.2,8.,1.2
1979-03-06 15:01:14.840 ,7,1,57.,1.2,0.,1.2,0.,1.2,6.,1.2
1979-03-06 15:01:16.040 ,7,1,45.,1.2,0.,1.2,3.,1.2,5.,1.2
1979-03-06 15:01:17.240 ,7,1,54.,1.2,0.,1.2,4.,1.2,4.,1.2
1979-03-06 15:01:18.440 ,7,1,74.,1.2,0.,1.2,0.,1.2,1.,1.2
1979-03-06 15:01:19.640 ,7,1,70.,1.2,0.,1.2,0.,1.2,1.,1.2
1979-03-06 15:01:20.840 ,7,1,78.,1.2,0.,1.2,3.,1.2,0.,1.2
1979-03-06 15:01:22.040 ,7,1,62.,1.2,0.,1.2,0.,1.2,3.,1.2
1979-03-06 15:01:23.240 ,7,1,66.,1.2,0.,1.2,2.,1.2,3.,1.2
1979-03-06 15:01:24.440 ,7,1,55.,1.2,0.,1.2,1.,1.2,6.,1.2
1979-03-06 15:01:25.640 ,7,1,8.,1.2,0.,1.2,3.,1.2,0.,1.2
1979-03-06 15:01:26.840 ,7,1,7.,1.2,0.,1.2,3.,1.2,0.,1.2
1979-03-06 15:01:28.040 ,7,1,3.,1.2,0.,1.2,3.,1.2,0.,1.2
1979-03-06 15:01:29.240 ,7,1,7.,1.2,0.,1.2,5.,1.2,0.,1.2
1979-03-06 15:01:30.440 ,7,1,7.,1.2,0.,1.2,1.,1.2,0.,1.2
1979-03-06 15:01:31.640 ,7,1,13.,1.2,0.,1.2,3.,1.2,0.,1.2
1979-03-06 15:01:32.840 ,3,1,7.,1.2,0.,1.2,2.,1.2,1.,1.2
1979-03-06 15:01:34.040 ,3,1,6.,1.2,0.,1.2,7.,1.2,0.,1.2
1979-03-06 15:01:35.240 ,3,1,5.,1.2,0.,1.2,4.,1.2,1.,1.2
1979-03-06 15:01:36.440 ,3,1,8.,1.2,0.,1.2,3.,1.2,0.,1.2
1979-03-06 15:01:37.640 ,3,1,52.,1.2,0.,1.2,2.,1.2,3.,1.2
1979-03-06 15:01:38.840 ,3,1,70.,1.2,0.,1.2,0.,1.2,3.,1.2
1979-03-06 15:01:40.040 ,3,1,68.,1.2,0.,1.2,1.,1.2,3.,1.2
1979-03-06 15:01:41.240 ,3,1,66.,1.2,0.,1.2,3.,1.2,7.,1.2
1979-03-06 15:01:42.440 ,3,1,70.,1.2,0.,1.2,1.,1.2,3.,1.2
1979-03-06 15:01:43.640 ,3,1,74.,1.2,0.,1.2,0.,1.2,4.,1.2
1979-03-06 15:01:44.840 ,3,1,63.,1.2,0.,1.2,0.,1.2,4.,1.2
1979-03-06 15:01:46.040 ,3,1,70.,1.2,0.,1.2,0.,1.2,1.,1.2
1979-03-06 15:01:47.240 ,3,1,66.,1.2,0.,1.2,1.,1.2,3.,1.2
1979-03-06 15:01:48.440 ,3,1,61.,1.2,0.,1.2,2.,1.2,4.,1.2
1979-03-06 15:01:49.640 ,3,1,76.,1.2,0.,1.2,2.,1.2,2.,1.2
1979-03-06 15:01:50.840 ,3,1,84.,1.2,0.,1.2,2.,1.2,0.,1.2
1979-03-06 15:01:52.040 ,3,1,55.,1.2,0.,1.2,1.,1.2,5.,1.2
1979-03-06 15:01:53.240 ,3,1,64.,1.2,0.,1.2,1.,1.2,3.,1.2
1979-03-06 15:01:54.440 ,3,1,90.,1.2,0.,1.2,0.,1.2,2.,1.2
1979-03-06 15:01:55.640 ,3,1,74.,1.2,0.,1.2,3.,1.2,4.,1.2
1979-03-06 15:01:56.840 ,0,1,68.,1.2,0.,1.2,2.,1.2,4.,1.2
1979-03-06 15:01:58.040 ,0,1,72.,1.2,0.,1.2,2.,1.2,3.,1.2
1979-03-06 15:01:59.240 ,0,1,84.,1.2,0.,1.2,2.,1.2,1.,1.2
1979-03-06 15:02:00.440 ,0,1,76.,1.2,0.,1.2,0.,1.2,4.,1.2
1979-03-06 15:02:01.640 ,0,1,76.,1.2,0.,1.2,0.,1.2,2.,1.2
1979-03-06 15:02:02.840 ,0,1,68.,1.2,0.,1.2,1.,1.2,0.,1.2
1979-03-06 15:02:04.040 ,0,1,68.,1.2,0.,1.2,0.,1.2,1.,1.2
1979-03-06 15:02:05.240 ,0,1,64.,1.2,0.,1.2,0.,1.2,2.,1.2
1979-03-06 15:02:06.440 ,0,1,74.,1.2,0.,1.2,2.,1.2,3.,1.2
1979-03-06 15:02:07.640 ,0,1,60.,1.2,0.,1.2,1.,1.2,4.,1.2
1979-03-06 15:02:08.840 ,0,1,51.,1.2,0.,1.2,1.,1.2,2.,1.2
1979-03-06 15:02:10.040 ,0,1,63.,1.2,0.,1.2,2.,1.2,2.,1.2
1979-03-06 15:02:11.240 ,0,1,82.,1.2,0.,1.2,2.,1.2,1.,1.2
1979-03-06 15:02:12.440 ,0,1,82.,1.2,0.,1.2,1.,1.2,4.,1.2
1979-03-06 15:02:13.640 ,0,1,58.,1.2,0.,1.2,1.,1.2,2.,1.2
1979-03-06 15:02:14.840 ,0,1,74.,1.2,0.,1.2,1.,1.2,2.,1.2
1979-03-06 15:02:16.040 ,0,1,58.,1.2,0.,1.2,1.,1.2,0.,1.2
1979-03-06 15:02:17.240 ,0,1,63.,1.2,0.,1.2,1.,1.2,4.,1.2
1979-03-06 15:02:18.440 ,0,1,78.,1.2,0.,1.2,1.,1.2,2.,1.2
1979-03-06 15:02:19.640 ,0,1,63.,1.2,0.,1.2,0.,1.2,2.,1.2
1979-03-06 15:02:20.840 ,4,1,60.,1.2,0.,1.2,2.,1.2,3.,1.2
1979-03-06 15:02:22.040 ,4,1,66.,1.2,0.,1.2,0.,1.2,3.,1.2
1979-03-06 15:02:23.240 ,4,1,72.,1.2,0.,1.2,0.,1.2,2.,1.2
1979-03-06 15:02:24.440 ,4,1,58.,1.2,0.,1.2,1.,1.2,3.,1.2
1979-03-06 15:02:25.640 ,4,1,62.,1.2,0.,1.2,1.,1.2,2.,1.2
1979-03-06 15:02:26.840 ,4,1,78.,1.2,0.,1.2,0.,1.2,2.,1.2
1979-03-06 15:02:28.040 ,4,1,63.,1.2,0.,1.2,2.,1.2,0.,1.2
1979-03-06 15:02:29.240 ,4,1,80.,1.2,0.,1.2,0.,1.2,3.,1.2
1979-03-06 15:02:30.440 ,4,1,61.,1.2,0.,1.2,2.,1.2,1.,1.2
1979-03-06 15:02:31.640 ,4,1,78.,1.2,0.,1.2,2.,1.2,4.,1.2
1979-03-06 15:02:32.840 ,4,1,68.,1.2,0.,1.2,3.,1.2,3.,1.2
1979-03-06 15:02:34.040 ,4,1,63.,1.2,0.,1.2,0.,1.2,2.,1.2
1979-03-06 15:02:35.240 ,4,1,56.,1.2,0.,1.2,1.,1.2,3.,1.2
1979-03-06 15:02:36.440 ,4,1,63.,1.2,0.,1.2,0.,1.2,4.,1.2
1979-03-06 15:02:37.640 ,4,1,82.,1.2,0.,1.2,0.,1.2,6.,1.2
1979-03-06 15:02:38.840 ,4,1,74.,1.2,0.,1.2,4.,1.2,6.,1.2
1979-03-06 15:02:40.040 ,4,1,84.,1.2,0.,1.2,1.,1.2,3.,1.2
1979-03-06 15:02:41.240 ,4,1,76.,1.2,0.,1.2,0.,1.2,3.,1.2
1979-03-06 15:02:42.440 ,4,1,76.,1.2,0.,1.2,1.,1.2,7.,1.2
1979-03-06 15:02:43.640 ,4,1,78.,1.2,0.,1.2,3.,1.2,2.,1.2
1979-03-06 15:02:44.840 ,7,1,62.,1.2,0.,1.2,2.,1.2,4.,1.2
1979-03-06 15:02:46.040 ,7,1,55.,1.2,0.,1.2,3.,1.2,3.,1.2
1979-03-06 15:02:47.240 ,7,1,80.,1.2,0.,1.2,0.,1.2,2.,1.2
1979-03-06 15:02:48.440 ,7,1,70.,1.2,0.,1.2,1.,1.2,6.,1.2
1979-03-06 15:02:49.640 ,7,1,86.,1.2,0.,1.2,0.,1.2,3.,1.2
1979-03-06 15:02:50.840 ,7,1,68.,1.2,0.,1.2,0.,1.2,1.,1.2
1979-03-06 15:02:52.040 ,7,1,57.,1.2,0.,1.2,4.,1.2,2.,1.2
1979-03-06 15:02:53.240 ,7,1,76.,1.2,0.,1.2,0.,1.2,1.,1.2
1979-03-06 15:02:54.440 ,7,1,74.,1.2,0.,1.2,1.,1.2,1.,1.2
1979-03-06 15:02:55.640 ,7,1,74.,1.2,0.,1.2,1.,1.2,4.,1.2
1979-03-06 15:02:56.840 ,7,1,54.,1.2,0.,1.2,0.,1.2,2.,1.2
1979-03-06 15:02:58.040 ,7,1,80.,1.2,0.,1.2,1.,1.2,1.,1.2
1979-03-06 15:02:59.240 ,7,1,58.,1.2,0.,1.2,0.,1.2,7.,1.2
1979-03-06 15:03:00.440 ,7,1,74.,1.2,0.,1.2,1.,1.2,4.,1.2
1979-03-06 15:03:01.640 ,7,1,13.,1.2,0.,1.2,3.,1.2,0.,1.2
1979-03-06 15:03:02.840 ,7,1,11.,1.2,0.,1.2,5.,1.2,0.,1.2
1979-03-06 15:03:04.040 ,7,1,8.,1.2,0.,1.2,2.,1.2,0.,1.2
1979-03-06 15:03:05.240 ,7,1,6.,1.2,0.,1.2,5.,1.2,0.,1.2
1979-03-06 15:03:06.440 ,7,1,7.,1.2,0.,1.2,1.,1.2,0.,1.2
1979-03-06 15:03:07.640 ,7,1,4.,1.2,0.,1.2,5.,1.2,0.,1.2
1979-03-06 15:03:08.840 ,3,1,5.,1.2,0.,1.2,1.,1.2,0.,1.2
1979-03-06 15:03:10.040 ,3,1,4.,1.2,0.,1.2,4.,1.2,0.,1.2
1979-03-06 15:03:11.240 ,3,1,8.,1.2,0.,1.2,3.,1.2,0.,1.2
1979-03-06 15:03:12.440 ,3,1,11.,1.2,0.,1.2,6.,1.2,0.,1.2
1979-03-06 15:03:13.640 ,3,1,82.,1.2,0.,1.2,0.,1.2,1.,1.2
1979-03-06 15:03:14.840 ,3,1,76.,1.2,0.,1.2,0.,1.2,4.,1.2
1979-03-06 15:03:16.040 ,3,1,80.,1.2,0.,1.2,1.,1.2,3.,1.2
1979-03-06 15:03:17.240 ,3,1,76.,1.2,0.,1.2,1.,1.2,1.,1.2
1979-03-06 15:03:18.440 ,3,1,70.,1.2,0.,1.2,1.,1.2,7.,1.2
1979-03-06 15:03:19.640 ,3,1,66.,1.2,0.,1.2,1.,1.2,5.,1.2
1979-03-06 15:03:20.840 ,3,1,84.,1.2,0.,1.2,1.,1.2,7.,1.2
1979-03-06 15:03:22.040 ,3,1,82.,1.2,0.,1.2,1.,1.2,2.,1.2
1979-03-06 15:03:23.240 ,3,1,78.,1.2,0.,1.2,0.,1.2,6.,1.2
1979-03-06 15:03:24.440 ,3,1,63.,1.2,0.,1.2,2.,1.2,3.,1.2
1979-03-06 15:03:25.640 ,3,1,88.,1.2,0.,1.2,3.,1.2,5.,1.2
1979-03-06 15:03:26.840 ,3,1,92.,1.2,0.,1.2,2.,1.2,4.,1.2
1979-03-06 15:03:28.040 ,3,1,98.,1.2,0.,1.2,2.,1.2,6.,1.2
1979-03-06 15:03:29.240 ,3,1,80.,1.2,0.,1.2,0.,1.2,3.,1.2
1979-03-06 15:03:30.440 ,3,1,86.,1.2,0.,1.2,1.,1.2,5.,1.2
1979-03-06 15:03:31.640 ,3,1,88.,1.2,0.,1.2,2.,1.2,3.,1.2
1979-03-06 15:03:32.840 ,0,1,92.,1.2,0.,1.2,4.,1.2,6.,1.2
1979-03-06 15:03:34.040 ,0,1,92.,1.2,0.,1.2,0.,1.2,4.,1.2
1979-03-06 15:03:35.240 ,0,1,94.,1.2,0.,1.2,1.,1.2,3.,1.2
1979-03-06 15:03:36.440 ,0,1,102.,1.2,0.,1.2,2.,1.2,3.,1.2
1979-03-06 15:03:37.640 ,0,1,60.,1.2,0.,1.2,0.,1.2,1.,1.2
1979-03-06 15:03:38.840 ,0,1,76.,1.2,0.,1.2,3.,1.2,1.,1.2
1979-03-06 15:03:40.040 ,0,1,76.,1.2,0.,1.2,1.,1.2,5.,1.2
1979-03-06 15:03:41.240 ,0,1,72.,1.2,0.,1.2,0.,1.2,2.,1.2
1979-03-06 15:03:42.440 ,0,1,76.,1.2,0.,1.2,2.,1.2,4.,1.2
1979-03-06 15:03:43.640 ,0,1,,0,,0,,0,,0
1979-03-06 15:03:44.840 ,0,1,78.,1.2,0.,1.2,2.,1.2,3.,1.2
1979-03-06 15:03:46.040 ,0,1,68.,1.2,0.,1.2,3.,1.2,1.,1.2
1979-03-06 15:03:47.240 ,0,1,68.,1.2,0.,1.2,1.,1.2,1.,1.2
1979-03-06 15:03:48.440 ,0,1,72.,1.2,0.,1.2,0.,1.2,2.,1.2
1979-03-06 15:03:49.640 ,0,1,59.,1.2,0.,1.2,3.,1.2,3.,1.2
1979-03-06 15:03:50.840 ,0,1,53.,1.2,0.,1.2,0.,1.2,1.,1.2
1979-03-06 15:03:52.040 ,0,1,68.,1.2,0.,1.2,3.,1.2,1.,1.2
1979-03-06 15:03:53.240 ,0,1,62.,1.2,0.,1.2,1.,1.2,3.,1.2
1979-03-06 15:03:54.440 ,0,1,54.,1.2,0.,1.2,1.,1.2,0.,1.2
1979-03-06 15:03:55.640 ,0,1,60.,1.2,0.,1.2,1.,1.2,4.,1.2
1979-03-06 15:03:56.840 ,4,1,76.,1.2,0.,1.2,1.,1.2,1.,1.2
1979-03-06 15:03:58.040 ,4,1,59.,1.2,0.,1.2,0.,1.2,1.,1.2
1979-03-06 15:03:59.240 ,4,1,57.,1.2,0.,1.2,0.,1.2,3.,1.2
1979-03-06 15:04:00.440 ,4,1,52.,1.2,0.,1.2,1.,1.2,2.,1.2
1979-03-06 15:04:01.640 ,4,1,68.,1.2,0.,1.2,1.,1.2,0.,1.2
1979-03-06 15:04:02.840 ,4,1,94.,1.2,0.,1.2,1.,1.2,1.,1.2
1979-03-06 15:04:04.040 ,4,1,66.,1.2,0.,1.2,0.,1.2,4.,1.2
1979-03-06 15:04:05.240 ,4,1,80.,1.2,0.,1.2,1.,1.2,3.,1.2
1979-03-06 15:04:06.440 ,4,1,58.,1.2,0.,1.2,0.,1.2,0.,1.2
1979-03-06 15:04:07.640 ,4,1,82.,1.2,0.,1.2,0.,1.2,3.,1.2
1979-03-06 15:04:08.840 ,4,1,66.,1.2,0.,1.2,0.,1.2,3.,1.2
1979-03-06 15:04:10.040 ,4,1,53.,1.2,0.,1.2,1.,1.2,2.,1.2
1979-03-06 15:04:11.240 ,4,1,68.,1.2,0.,1.2,0.,1.2,4.,1.2
1979-03-06 15:04:12.440 ,4,1,80.,1.2,0.,1.2,1.,1.2,0.,1.2
1979-03-06 15:04:13.640 ,4,1,96.,1.2,0.,1.2,2.,1.2,4.,1.2
1979-03-06 15:04:14.840 ,4,1,94.,1.2,0.,1.2,1.,1.2,2.,1.2
1979-03-06 15:04:16.040 ,4,1,74.,1.2,0.,1.2,2.,1.2,4.,1.2
1979-03-06 15:04:17.240 ,4,1,78.,1.2,0.,1.2,1.,1.2,1.,1.2
1979-03-06 15:04:18.440 ,4,1,78.,1.2,0.,1.2,0.,1.2,3.,1.2
1979-03-06 15:04:19.640 ,4,1,76.,1.2,0.,1.2,5.,1.2,4.,1.2
1979-03-06 15:04:20.840 ,7,1,80.,1.2,0.,1.2,2.,1.2,2.,1.2
1979-03-06 15:04:22.040 ,7,1,72.,1.2,0.,1.2,1.,1.2,2.,1.2
1979-03-06 15:04:23.240 ,7,1,92.,1.2,0.,1.2,0.,1.2,3.,1.2
1979-03-06 15:04:24.440 ,7,1,70.,1.2,0.,1.2,2.,1.2,2.,1.2
1979-03-06 15:04:25.640 ,7,1,72.,1.2,0.,1.2,0.,1.2,1.,1.2
1979-03-06 15:04:26.840 ,7,1,76.,1.2,0.,1.2,2.,1.2,3.,1.2
1979-03-06 15:04:28.040 ,7,1,68.,1.2,0.,1.2,1.,1.2,3.,1.2
1979-03-06 15:04:29.240 ,7,1,78.,1.2,0.,1.2,3.,1.2,7.,1.2
1979-03-06 15:04:30.440 ,7,1,70.,1.2,0.,1.2,0.,1.2,4.,1.2
1979-03-06 15:04:31.640 ,7,1,76.,1.2,0.,1.2,0.,1.2,2.,1.2
1979-03-06 15:04:32.840 ,7,1,66.,1.2,0.,1.2,1.,1.2,2.,1.2
1979-03-06 15:04:34.040 ,7,1,70.,1.2,0.,1.2,0.,1.2,7.,1.2
1979-03-06 15:04:35.240 ,7,1,61.,1.2,0.,1.2,0.,1.2,1.,1.2
1979-03-06 15:04:36.440 ,7,1,74.,1.2,0.,1.2,0.,1.2,4.,1.2
1979-03-06 15:04:37.640 ,7,1,13.,1.2,0.,1.2,1.,1.2,1.,1.2
1979-03-06 15:04:38.840 ,7,1,7.,1.2,0.,1.2,8.,1.2,0.,1.2
1979-03-06 15:04:40.040 ,7,1,4.,1.2,0.,1.2,6.,1.2,1.,1.2
1979-03-06 15:04:41.240 ,7,1,9.,1.2,0.,1.2,3.,1.2,1.,1.2
1979-03-06 15:04:42.440 ,7,1,11.,1.2,0.,1.2,3.,1.2,0.,1.2
1979-03-06 15:04:43.640 ,7,1,5.,1.2,0.,1.2,2.,1.2,0.,1.2
1979-03-06 15:04:44.840 ,3,1,19.,1.2,0.,1.2,8.,1.2,0.,1.2
1979-03-06 15:04:46.040 ,3,1,6.,1.2,0.,1.2,3.,1.2,0.,1.2
1979-03-06 15:04:47.240 ,3,1,7.,1.2,0.,1.2,5.,1.2,0.,1.2
1979-03-06 15:04:48.440 ,3,1,8.,1.2,0.,1.2,2.,1.2,0.,1.2
1979-03-06 15:04:49.640 ,3,1,64.,1.2,0.,1.2,3.,1.2,5.,1.2
1979-03-06 15:04:50.840 ,3,1,64.,1.2,0.,1.2,1.,1.2,2.,1.2
1979-03-06 15:04:52.040 ,3,1,74.,1.2,0.,1.2,0.,1.2,2.,1.2
1979-03-06 15:04:53.240 ,3,1,62.,1.2,0.,1.2,1.,1.2,4.,1.2
1979-03-06 15:04:54.440 ,3,1,64.,1.2,0.,1.2,3.,1.2,2.,1.2
1979-03-06 15:04:55.640 ,3,1,76.,1.2,0.,1.2,0.,1.2,0.,1.2
1979-03-06 15:04:56.840 ,3,1,68.,1.2,0.,1.2,0.,1.2,5.,1.2
1979-03-06 15:04:58.040 ,3,1,74.,1.2,0.,1.2,2.,1.2,2.,1.2
1979-03-06 15:04:59.240 ,3,1,68.,1.2,0.,1.2,1.,1.2,3.,1.2
1979-03-06 15:05:00.440 ,3,1,76.,1.2,0.,1.2,1.,1.2,2.,1.2
1979-03-06 15:05:01.640 ,3,1,62.,1.2,0.,1.2,0.,1.2,5.,1.2
1979-03-06 15:05:02.840 ,3,1,,0,,0,,0,,0
1979-03-06 15:05:04.040 ,3,1,,0,,0,,0,,0
1979-03-06 15:05:05.240 ,3,1,72.,1.2,0.,1.2,1.,1.2,3.,1.2
1979-03-06 15:05:06.440 ,3,1,72.,1.2,0.,1.2,2.,1.2,4.,1.2
1979-03-06 15:05:07.640 ,3,1,68.,1.2,0.,1.2,2.,1.2,2.,1.2
1979-03-06 15:05:08.840 ,0,1,82.,1.2,0.,1.2,1.,1.2,1.,1.2
1979-03-06 15:05:10.040 ,0,1,61.,1.2,0.,1.2,0.,1.2,3.,1.2
1979-03-06 15:05:11.240 ,0,1,76.,1.2,0.,1.2,1.,1.2,4.,1.2
1979-03-06 15:05:12.440 ,0,1,78.,1.2,0.,1.2,0.,1.2,2.,1.2
1979-03-06 15:05:13.640 ,0,1,55.,1.2,0.,1.2,2.,1.2,2.,1.2
1979-03-06 15:05:14.840 ,0,1,70.,1.2,0.,1.2,0.,1.2,2.,1.2
1979-03-06 15:05:16.040 ,0,1,52.,1.2,0.,1.2,0.,1.2,1.,1.2
1979-03-06 15:05:17.240 ,0,1,76.,1.2,0.,1.2,1.,1.2,3.,1.2
1979-03-06 15:05:18.440 ,0,1,59.,1.2,0.,1.2,1.,1.2,3.,1.2
1979-03-06 15:05:19.640 ,0,1,80.,1.2,0.,1.2,1.,1.2,1.,1.2
1979-03-06 15:05:20.840 ,0,1,60.,1.2,0.,1.2,0.,1.2,6.,1.2
1979-03-06 15:05:22.040 ,0,1,62.,1.2,0.,1.2,0.,1.2,3.,1.2
1979-03-06 15:05:23.240 ,0,1,42.,1.2,0.,1.2,1.,1.2,3.,1.2
1979-03-06 15:05:24.440 ,0,1,80.,1.2,0.,1.2,1.,1.2,1.,1.2
1979-03-06 15:05:25.640 ,0,1,76.,1.2,0.,1.2,0.,1.2,2.,1.2
1979-03-06 15:05:26.840 ,0,1,55.,1.2,0.,1.2,0.,1.2,2.,1.2
1979-03-06 15:05:28.040 ,0,1,57.,1.2,0.,1.2,0.,1.2,4.,1.2
1979-03-06 15:05:29.240 ,0,1,70.,1.2,0.,1.2,0.,1.2,6.,1.2
1979-03-06 15:05:30.440 ,0,1,63.,1.2,0.,1.2,1.,1.2,2.,1.2
1979-03-06 15:05:31.640 ,0,1,72.,1.2,0.,1.2,1.,1.2,6.,1.2
1979-03-06 15:05:32.840 ,4,1,43.,1.2,0.,1.2,1.,1.2,4.,1.2
1979-03-06 15:05:34.040 ,4,1,63.,1.2,0.,1.2,1.,1.2,2.,1.2
1979-03-06 15:05:35.240 ,4,1,64.,1.2,0.,1.2,1.,1.2,1.,1.2
1979-03-06 15:05:36.440 ,4,1,57.,1.2,0.,1.2,1.,1.2,0.,1.2
1979-03-06 15:05:37.640 ,4,1,68.,1.2,0.,1.2,1.,1.2,0.,1.2
1979-03-06 15:05:38.840 ,4,1,62.,1.2,0.,1.2,1.,1.2,1.,1.2
1979-03-06 15:05:40.040 ,4,1,64.,1.2,0.,1.2,0.,1.2,0.,1.2
1979-03-06 15:05:41.240 ,4,1,70.,1.2,0.,1.2,1.,1.2,3.,1.2
1979-03-06 15:05:42.440 ,4,1,50.,1.2,0.,1.2,2.,1.2,1.,1.2
1979-03-06 15:05:43.640 ,4,1,66.,1.2,0.,1.2,0.,1.2,2.,1.2
1979-03-06 15:05:44.840 ,4,1,57.,1.2,0.,1.2,1.,1.2,6.,1.2
1979-03-06 15:05:46.040 ,4,1,57.,1.2,0.,1.2,1.,1.2,4.,1.2
1979-03-06 15:05:47.240 ,4,1,70.,1.2,0.,1.2,0.,1.2,3.,1.2
1979-03-06 15:05:48.440 ,4,1,74.,1.2,0.,1.2,0.,1.2,3.,1.2
1979-03-06 15:05:49.640 ,4,1,61.,1.2,0.,1.2,0.,1.2,2.,1.2
1979-03-06 15:05:50.840 ,4,1,66.,1.2,0.,1.2,3.,1.2,2.,1.2
1979-03-06 15:05:52.040 ,4,1,74.,1.2,0.,1.2,1.,1.2,7.,1.2
1979-03-06 15:05:53.240 ,4,1,58.,1.2,0.,1.2,0.,1.2,6.,1.2
1979-03-06 15:05:54.440 ,4,1,64.,1.2,0.,1.2,2.,1.2,6.,1.2
1979-03-06 15:05:55.640 ,4,1,64.,1.2,0.,1.2,2.,1.2,6.,1.2
1979-03-06 15:05:56.840 ,7,1,64.,1.2,0.,1.2,0.,1.2,2.,1.2
1979-03-06 15:05:58.040 ,7,1,55.,1.2,0.,1.2,1.,1.2,7.,1.2
1979-03-06 15:05:59.240 ,7,1,64.,1.2,0.,1.2,1.,1.2,3.,1.2
1979-03-06 15:06:00.440 ,7,1,72.,1.2,0.,1.2,2.,1.2,2.,1.2
1979-03-06 15:06:01.640 ,7,1,54.,1.2,0.,1.2,1.,1.2,3.,1.2
1979-03-06 15:06:02.840 ,7,1,63.,1.2,0.,1.2,1.,1.2,4.,1.2
1979-03-06 15:06:04.040 ,7,1,66.,1.2,0.,1.2,1.,1.2,5.,1.2
1979-03-06 15:06:05.240 ,7,1,64.,1.2,0.,1.2,2.,1.2,9.,1.2
1979-03-06 15:06:06.440 ,7,1,84.,1.2,0.,1.2,0.,1.2,3.,1.2
1979-03-06 15:06:07.640 ,7,1,62.,1.2,0.,1.2,2.,1.2,3.,1.2
1979-03-06 15:06:08.840 ,7,1,74.,1.2,0.,1.2,0.,1.2,2.,1.2
1979-03-06 15:06:10.040 ,7,1,70.,1.2,0.,1.2,1.,1.2,3.,1.2
1979-03-06 15:06:11.240 ,7,1,55.,1.2,0.,1.2,1.,1.2,3.,1.2
1979-03-06 15:06:12.440 ,7,1,61.,1.2,0.,1.2,1.,1.2,1.,1.2
1979-03-06 15:06:13.640 ,7,1,10.,1.2,0.,1.2,5.,1.2,0.,1.2
1979-03-06 15:06:14.840 ,7,1,4.,1.2,0.,1.2,3.,1.2,0.,1.2
1979-03-06 15:06:16.040 ,7,1,4.,1.2,0.,1.2,2.,1.2,0.,1.2
1979-03-06 15:06:17.240 ,7,1,4.,1.2,0.,1.2,5.,1.2,0.,1.2
1979-03-06 15:06:18.440 ,7,1,8.,1.2,0.,1.2,4.,1.2,0.,1.2
1979-03-06 15:06:19.640 ,7,1,7.,1.2,0.,1.2,2.,1.2,0.,1.2
1979-03-06 15:06:20.840 ,3,1,4.,1.2,0.,1.2,6.,1.2,0.,1.2
1979-03-06 15:06:22.040 ,3,1,5.,1.2,0.,1.2,6.,1.2,0.,1.2
1979-03-06 15:06:23.240 ,3,1,11.,1.2,0.,1.2,3.,1.2,0.,1.2
1979-03-06 15:06:24.440 ,3,1,9.,1.2,0.,1.2,2.,1.2,2.,1.2
1979-03-06 15:06:25.640 ,3,1,57.,1.2,0.,1.2,1.,1.2,3.,1.2
1979-03-06 15:06:26.840 ,3,1,55.,1.2,0.,1.2,1.,1.2,1.,1.2
1979-03-06 15:06:28.040 ,3,1,64.,1.2,0.,1.2,0.,1.2,1.,1.2
1979-03-06 15:06:29.240 ,3,1,64.,1.2,0.,1.2,1.,1.2,1.,1.2
1979-03-06 15:06:30.440 ,3,1,66.,1.2,0.,1.2,0.,1.2,5.,1.2
1979-03-06 15:06:31.640 ,3,1,58.,1.2,0.,1.2,1.,1.2,3.,1.2
1979-03-06 15:06:32.840 ,3,1,61.,1.2,0.,1.2,1.,1.2,5.,1.2
1979-03-06 15:06:34.040 ,3,1,55.,1.2,0.,1.2,0.,1.2,2.,1.2
1979-03-06 15:06:35.240 ,3,1,59.,1.2,0.,1.2,1.,1.2,3.,1.2
1979-03-06 15:06:36.440 ,3,1,54.,1.2,0.,1.2,3.,1.2,3.,1.2
1979-03-06 15:06:37.640 ,3,1,70.,1.2,0.,1.2,1.,1.2,2.,1.2
1979-03-06 15:06:38.840 ,3,1,76.,1.2,0.,1.2,0.,1.2,4.,1.2
1979-03-06 15:06:40.040 ,3,1,68.,1.2,0.,1.2,1.,1.2,4.,1.2
1979-03-06 15:06:41.240 ,3,1,64.,1.2,0.,1.2,0.,1.2,3.,1.2
1979-03-06 15:06:42.440 ,3,1,76.,1.2,0.,1.2,2.,1.2,4.,1.2
1979-03-06 15:06:43.640 ,3,1,68.,1.2,0.,1.2,1.,1.2,2.,1.2
1979-03-06 15:06:44.840 ,0,1,76.,1.2,0.,1.2,1.,1.2,4.,1.2
1979-03-06 15:06:46.040 ,0,1,76.,1.2,0.,1.2,4.,1.2,3.,1.2
1979-03-06 15:06:47.240 ,0,1,74.,1.2,0.,1.2,2.,1.2,4.,1.2
1979-03-06 15:06:48.440 ,0,1,72.,1.2,0.,1.2,3.,1.2,4.,1.2
1979-03-06 15:06:49.640 ,0,1,68.,1.2,0.,1.2,0.,1.2,5.,1.2
1979-03-06 15:06:50.840 ,0,1,68.,1.2,0.,1.2,0.,1.2,5.,1.2
1979-03-06 15:06:52.040 ,0,1,64.,1.2,0.,1.2,2.,1.2,5.,1.2
1979-03-06 15:06:53.240 ,0,1,63.,1.2,0.,1.2,3.,1.2,3.,1.2
1979-03-06 15:06:54.440 ,0,1,72.,1.2,0.,1.2,1.,1.2,6.,1.2
1979-03-06 15:06:55.640 ,0,1,68.,1.2,0.,1.2,0.,1.2,5.,1.2
1979-03-06 15:06:56.840 ,0,1,59.,1.2,0.,1.2,2.,1.2,4.,1.2
1979-03-06 15:06:58.040 ,0,1,64.,1.2,0.,1.2,1.,1.2,2.,1.2
1979-03-06 15:06:59.240 ,0,1,61.,1.2,0.,1.2,0.,1.2,6.,1.2
1979-03-06 15:07:00.440 ,0,1,60.,1.2,0.,1.2,1.,1.2,4.,1.2
1979-03-06 15:07:01.640 ,0,1,58.,1.2,0.,1.2,1.,1.2,5.,1.2
1979-03-06 15:07:02.840 ,0,1,60.,1.2,0.,1.2,0.,1.2,2.,1.2
1979-03-06 15:07:04.040 ,0,1,55.,1.2,0.,1.2,1.,1.2,3.,1.2
1979-03-06 15:07:05.240 ,0,1,55.,1.2,0.,1.2,0.,1.2,1.,1.2
1979-03-06 15:07:06.440 ,0,1,53.,1.2,0.,1.2,1.,1.2,0.,1.2
1979-03-06 15:07:07.640 ,0,1,49.,1.2,0.,1.2,1.,1.2,1.,1.2
1979-03-06 15:07:08.840 ,4,1,55.,1.2,0.,1.2,0.,1.2,1.,1.2
1979-03-06 15:07:10.040 ,4,1,66.,1.2,0.,1.2,0.,1.2,6.,1.2
1979-03-06 15:07:11.240 ,4,1,56.,1.2,0.,1.2,0.,1.2,3.,1.2
1979-03-06 15:07:12.440 ,4,1,52.,1.2,0.,1.2,1.,1.2,3.,1.2
1979-03-06 15:07:13.640 ,4,1,50.,1.2,0.,1.2,2.,1.2,2.,1.2
1979-03-06 15:07:14.840 ,4,1,62.,1.2,0.,1.2,0.,1.2,2.,1.2
1979-03-06 15:07:16.040 ,4,1,64.,1.2,0.,1.2,0.,1.2,3.,1.2
1979-03-06 15:07:17.240 ,4,1,62.,1.2,0.,1.2,0.,1.2,2.,1.2
1979-03-06 15:07:18.440 ,4,1,59.,1.2,0.,1.2,2.,1.2,5.,1.2
1979-03-06 15:07:19.640 ,4,1,76.,1.2,0.,1.2,0.,1.2,1.,1.2
1979-03-06 15:07:20.840 ,4,1,66.,1.2,0.,1.2,0.,1.2,0.,1.2
1979-03-06 15:07:22.040 ,4,1,70.,1.2,0.,1.2,1.,1.2,3.,1.2
1979-03-06 15:07:23.240 ,4,1,70.,1.2,0.,1.2,0.,1.2,5.,1.2
1979-03-06 15:07:24.440 ,4,1,68.,1.2,0.,1.2,0.,1.2,1.,1.2
1979-03-06 15:07:25.640 ,4,1,68.,1.2,0.,1.2,0.,1.2,3.,1.2
1979-03-06 15:07:26.840 ,4,1,70.,1.2,0.,1.2,1.,1.2,3.,1.2
1979-03-06 15:07:28.040 ,4,1,64.,1.2,0.,1.2,0.,1.2,3.,1.2
1979-03-06 15:07:29.240 ,4,1,66.,1.2,0.,1.2,2.,1.2,6.,1.2
1979-03-06 15:07:30.440 ,4,1,58.,1.2,0.,1.2,0.,1.2,2.,1.2
1979-03-06 15:07:31.640 ,4,1,44.,1.2,0.,1.2,1.,1.2,3.,1.2
1979-03-06 15:07:32.840 ,7,1,53.,1.2,0.,1.2,1.,1.2,1.,1.2
1979-03-06 15:07:34.040 ,7,1,55.,1.2,0.,1.2,0.,1.2,3.,1.2
1979-03-06 15:07:35.240 ,7,1,70.,1.2,0.,1.2,0.,1.2,6.,1.2
1979-03-06 15:07:36.440 ,7,1,53.,1.2,0.,1.2,0.,1.2,1.,1.2
1979-03-06 15:07:37.640 ,7,1,43.,1.2,0.,1.2,1.,1.2,5.,1.2
1979-03-06 15:07:38.840 ,7,1,72.,1.2,0.,1.2,1.,1.2,4.,1.2
1979-03-06 15:07:40.040 ,7,1,41.,1.2,0.,1.2,2.,1.2,5.,1.2
1979-03-06 15:07:41.240 ,7,1,49.,1.2,0.,1.2,2.,1.2,4.,1.2
1979-03-06 15:07:42.440 ,7,1,58.,1.2,0.,1.2,1.,1.2,6.,1.2
1979-03-06 15:07:43.640 ,7,1,63.,1.2,0.,1.2,3.,1.2,0.,1.2
1979-03-06 15:07:44.840 ,7,1,53.,1.2,0.,1.2,0.,1.2,3.,1.2
1979-03-06 15:07:46.040 ,7,1,49.,1.2,0.,1.2,2.,1.2,2.,1.2
1979-03-06 15:07:47.240 ,7,1,52.,1.2,0.,1.2,1.,1.2,1.,1.2
1979-03-06 15:07:48.440 ,7,1,46.,1.2,0.,1.2,0.,1.2,6.,1.2
1979-03-06 15:07:49.640 ,7,1,4.,1.2,0.,1.2,6.,1.2,1.,1.2
1979-03-06 15:07:50.840 ,7,1,5.,1.2,0.,1.2,1.,1.2,0.,1.2
1979-03-06 15:07:52.040 ,7,1,4.,1.2,0.,1.2,1.,1.2,1.,1.2
1979-03-06 15:07:53.240 ,7,1,1.,1.2,0.,1.2,2.,1.2,0.,1.2
1979-03-06 15:07:54.440 ,7,1,5.,1.2,0.,1.2,1.,1.2,0.,1.2
1979-03-06 15:07:55.640 ,7,1,2.,1.2,0.,1.2,6.,1.2,0.,1.2
1979-03-06 15:07:56.840 ,3,1,1.,1.2,0.,1.2,4.,1.2,0.,1.2
1979-03-06 15:07:58.040 ,3,1,3.,1.2,0.,1.2,3.,1.2,0.,1.2
1979-03-06 15:07:59.240 ,3,1,1.,1.2,0.,1.2,5.,1.2,0.,1.2
1979-03-06 15:08:00.440 ,3,1,7.,1.2,0.,1.2,5.,1.2,1.,1.2
1979-03-06 15:08:01.640 ,3,1,51.,1.2,0.,1.2,1.,1.2,1.,1.2
1979-03-06 15:08:02.840 ,3,1,45.,1.2,0.,1.2,0.,1.2,4.,1.2
1979-03-06 15:08:04.040 ,3,1,39.,1.2,0.,1.2,2.,1.2,4.,1.2
1979-03-06 15:08:05.240 ,3,1,47.,1.2,0.,1.2,0.,1.2,3.,1.2
1979-03-06 15:08:06.440 ,3,1,45.,1.2,0.,1.2,1.,1.2,6.,1.2
1979-03-06 15:08:07.640 ,3,1,53.,1.2,0.,1.2,0.,1.2,2.,1.2
1979-03-06 15:08:08.840 ,3,1,59.,1.2,0.,1.2,2.,1.2,4.,1.2
1979-03-06 15:08:10.040 ,3,1,54.,1.2,0.,1.2,1.,1.2,1.,1.2
1979-03-06 15:08:11.240 ,3,1,52.,1.2,0.,1.2,1.,1.2,0.,1.2
1979-03-06 15:08:12.440 ,3,1,52.,1.2,0.,1.2,0.,1.2,1.,1.2
1979-03-06 15:08:13.640 ,3,1,52.,1.2,0.,1.2,1.,1.2,3.,1.2
1979-03-06 15:08:14.840 ,3,1,46.,1.2,0.,1.2,1.,1.2,3.,1.2
1979-03-06 15:08:16.040 ,3,1,49.,1.2,0.,1.2,0.,1.2,1.,1.2
1979-03-06 15:08:17.240 ,3,1,44.,1.2,0.,1.2,1.,1.2,5.,1.2
1979-03-06 15:08:18.440 ,3,1,52.,1.2,0.,1.2,1.,1.2,3.,1.2
1979-03-06 15:08:19.640 ,3,1,74.,1.2,0.,1.2,2.,1.2,1.,1.2
1979-03-06 15:08:20.840 ,0,1,55.,1.2,0.,1.2,1.,1.2,2.,1.2
1979-03-06 15:08:22.040 ,0,1,49.,1.2,0.,1.2,1.,1.2,3.,1.2
1979-03-06 15:08:23.240 ,0,1,58.,1.2,0.,1.2,0.,1.2,5.,1.2
1979-03-06 15:08:24.440 ,0,1,57.,1.2,0.,1.2,0.,1.2,2.,1.2
1979-03-06 15:08:25.640 ,0,1,46.,1.2,0.,1.2,1.,1.2,3.,1.2
1979-03-06 15:08:26.840 ,0,1,52.,1.2,0.,1.2,1.,1.2,1.,1.2
1979-03-06 15:08:28.040 ,0,1,43.,1.2,0.,1.2,2.,1.2,3.,1.2